Stations météo

réclame
Mon MeteoGroup
A12-CPP, Pays-Bas (6205): Température de l'air & dewpoint: 09.08.2018 01:00:00 - 15.08.2018 01:00:00 (CEST)A12-CPP, Pays-Bas (6205): Vitesse du vent & gusts: 09.08.2018 01:00:00 - 15.08.2018 01:00:00 (CEST)A12-CPP, Pays-Bas (6205): Direction du vent: 09.08.2018 01:00:00 - 15.08.2018 01:00:00 (CEST)A12-CPP, Pays-Bas (6205): reduced air pressure: 09.08.2018 01:00:00 - 15.08.2018 01:00:00 (CEST)A12-CPP, Pays-Bas (6205): visibility: 09.08.2018 01:00:00 - 15.08.2018 01:00:00 (CEST)
Date & Time tt [°C] td [°C] ff [km/h] ff [knt] fx [km/h] fx [knt] dd ppp [hPa] vv [km]
15.08.2018 01:00:00 18,2 15,9 31 17 32 18 WSW 1012,9 10
15.08.2018 00:00:00 18,1 15,6 31 17 32 18 SW 1012,7 10
14.08.2018 23:00:00 18,0 14,5 35 19 36 19 SW 1013,0 10
14.08.2018 22:00:00 17,8 14,3 34 18 32 18 WSW 1013,2 10
14.08.2018 21:00:00 17,7 14,5 31 17 32 18 WSW 1013,1 10
14.08.2018 20:00:00 17,6 14,8 29 16 29 16 WSW 1012,5 10
14.08.2018 19:00:00 17,3 15,8 26 14 25 14 SW 1012,6 9
14.08.2018 18:00:00 17,6 14,3 22 12 22 12 WSW 1012,7 10
14.08.2018 17:00:00 17,5 13,9 22 12 25 14 WSW 1012,8 10
14.08.2018 16:00:00 17,4 12,9 18 10 22 12 W 1012,8 10
14.08.2018 15:00:00 17,3 13,4 21 11 25 14 W 1012,7 10
14.08.2018 14:00:00 17,3 13,7 26 14 29 16 NW 1012,2 10
14.08.2018 13:00:00 17,3 12,7 29 16 29 16 NNW 1011,8 10
14.08.2018 12:00:00 17,3 12,4 29 16 32 18 N 1011,0 10
14.08.2018 11:00:00 17,2 12,6 35 19 36 19 N 1010,5 10
14.08.2018 10:00:00 17,2 12,5 39 21 40 21 N 1009,7 10
14.08.2018 09:00:00 17,0 13,1 42 23 50 27 N 1009,1 10
14.08.2018 08:00:00 16,8 13,0 52 28 50 27 N 1008,4 10
14.08.2018 07:00:00 16,3 14,7 54 29 50 27 N 1007,5 10
14.08.2018 06:00:00 16,6 15,7 44 24 47 25 N 1006,7 9
14.08.2018 05:00:00 16,6 15,3 44 24 47 25 NNW 1006,2 10
14.08.2018 04:00:00 16,8 15,3 42 23 43 23 NNW 1006,1 10
14.08.2018 03:00:00 17,2 15,0 42 23 43 23 N 1005,7 10
14.08.2018 02:00:00 17,2 15,3 41 22 40 21 N 1005,6 10
14.08.2018 01:00:00 17,2 16,1 35 19 40 21 N 1005,0 10
14.08.2018 00:00:00 17,6 16,1 9 5 14 8 NE 1004,9 10
13.08.2018 23:00:00 17,5 16,4 11 6 14 8 N 1004,5 10
13.08.2018 22:00:00 17,2 16,7 13 7 14 8 N 1004,4 10
13.08.2018 21:00:00 17,2 16,6 9 5 11 6 ENE 1004,0 10
13.08.2018 20:00:00 17,1 16,6 9 5 11 6 E 1003,6 10
13.08.2018 19:00:00 17,3 16,7 5 3 11 6 S 1003,5 10
13.08.2018 18:00:00 17,2 16,6 5 3 11 6 S 1003,6 10
13.08.2018 17:00:00 17,3 16,6 8 4 11 6 S 1003,6 10
13.08.2018 16:00:00 17,2 16,7 15 8 14 8 SSE 1003,7 10
13.08.2018 15:00:00 17,3 16,7 15 8 22 12 SSW 1003,9 10
13.08.2018 14:00:00 17,5 17,0 18 10 22 12 SSE 1004,0 10
13.08.2018 13:00:00 17,2 16,9 18 10 22 12 - 1004,2 3,9
13.08.2018 12:00:00 17,1 16,7 18 10 22 12 SSW 1004,4 3,6
13.08.2018 11:00:00 17,1 16,5 26 14 25 14 SSW 1004,3 10
13.08.2018 10:00:00 17,4 16,7 26 14 25 14 SSW 1004,5 10
13.08.2018 09:00:00 17,3 16,9 9 5 11 6 SSW 1004,8 5
13.08.2018 08:00:00 17,2 16,6 8 4 7 4 SSW 1004,6 7
13.08.2018 07:00:00 17,3 16,9 8 4 7 4 WSW 1004,6 7
13.08.2018 06:00:00 17,4 16,6 9 5 11 6 WSW 1004,8 10
13.08.2018 05:00:00 17,2 16,7 11 6 11 6 WSW 1005,3 9
13.08.2018 04:00:00 17,1 16,7 5 3 11 6 WNW 1005,6 3,1
13.08.2018 03:00:00 17,5 16,9 13 7 14 8 SSW 1006,0 9
13.08.2018 02:00:00 17,2 16,6 5 3 11 6 - 1006,3 9
13.08.2018 01:00:00 16,9 16,9 5 3 11 6 - 1006,7 4,1
13.08.2018 00:00:00 16,8 16,8 5 3 7 4 W 1006,9 2,5
12.08.2018 23:00:00 16,9 16,8 8 4 11 6 W 1007,2 4,8
12.08.2018 22:00:00 17,0 16,8 9 5 14 8 W 1007,3 4,4
12.08.2018 21:00:00 16,7 16,6 13 7 14 8 WSW 1007,4 1,9
12.08.2018 20:00:00 16,6 16,4 16 9 14 8 WSW 1007,5 3,4
12.08.2018 19:00:00 16,7 16,4 18 10 22 12 WSW 1007,7 3,5
12.08.2018 18:00:00 16,8 16,4 24 13 25 14 WSW 1007,9 4,3
12.08.2018 17:00:00 16,7 16,2 26 14 29 16 SW 1008,0 5
12.08.2018 16:00:00 17,1 16,1 29 16 29 16 SW 1008,3 10
12.08.2018 15:00:00 17,3 15,8 34 18 40 21 SW 1008,5 10
12.08.2018 14:00:00 17,0 16,0 41 22 40 21 SW 1008,7 10
12.08.2018 13:00:00 16,4 15,8 24 13 29 16 SW 1009,1 5
12.08.2018 12:00:00 16,9 16,3 28 15 29 16 SW 1009,6 8
12.08.2018 11:00:00 16,6 15,8 29 16 36 19 SW 1009,9 7
12.08.2018 10:00:00 16,3 15,3 22 12 40 21 SE 1010,3 5
12.08.2018 09:00:00 14,9 14,1 34 18 40 21 SSE 1011,3 3,0
12.08.2018 08:00:00 15,2 13,6 26 14 32 18 SSE 1012,0 5
12.08.2018 07:00:00 17,1 14,1 29 16 29 16 S 1012,4 10
12.08.2018 06:00:00 17,1 14,5 29 16 32 18 S 1013,2 9
12.08.2018 05:00:00 17,6 12,8 28 15 29 16 S 1013,9 10
12.08.2018 04:00:00 17,3 12,3 24 13 29 16 S 1014,8 10
12.08.2018 03:00:00 16,9 11,1 29 16 32 18 SSW 1015,5 10
12.08.2018 02:00:00 17,0 9,2 22 12 29 16 SW 1016,2 10
12.08.2018 01:00:00 16,7 10,1 26 14 29 16 SW 1016,8 10
12.08.2018 00:00:00 16,2 10,0 26 14 29 16 SW 1017,5 10
11.08.2018 23:00:00 16,4 11,6 24 13 29 16 SW 1018,0 10
11.08.2018 22:00:00 16,6 10,8 16 9 18 10 SW 1018,2 10
11.08.2018 21:00:00 16,6 10,2 15 8 18 10 WSW 1018,3 10
11.08.2018 20:00:00 16,5 10,6 15 8 18 10 WSW 1018,4 10
11.08.2018 19:00:00 16,4 10,3 13 7 18 10 W 1018,8 10
11.08.2018 18:00:00 16,4 9,6 16 9 18 10 NW 1019,0 10
11.08.2018 17:00:00 16,4 10,1 18 10 22 12 NW 1019,1 10
11.08.2018 16:00:00 16,4 9,9 21 11 25 14 NW 1019,1 10
11.08.2018 15:00:00 16,2 10,2 21 11 22 12 NW 1018,9 10
11.08.2018 14:00:00 16,0 10,7 22 12 29 16 W 1018,7 10
11.08.2018 13:00:00 16,4 9,9 26 14 29 16 NNW 1018,2 10
11.08.2018 12:00:00 16,2 10,1 28 15 29 16 NNW 1018,2 10
11.08.2018 11:00:00 16,2 9,1 31 17 32 18 NNW 1017,6 10
11.08.2018 10:00:00 15,9 9,8 34 18 32 18 NNW 1017,0 10
11.08.2018 09:00:00 15,7 10,0 34 18 36 19 NNW 1016,5 10
11.08.2018 08:00:00 15,8 8,8 29 16 36 19 N 1015,9 10
11.08.2018 07:00:00 15,6 10,8 41 22 43 23 NNW 1015,4 10
11.08.2018 06:00:00 15,8 9,9 35 19 40 21 NNW 1014,9 10
11.08.2018 05:00:00 15,6 9,9 34 18 40 21 NNW 1014,8 10
11.08.2018 04:00:00 15,2 11,2 24 13 29 16 W 1014,8 10
11.08.2018 03:00:00 14,8 9,7 24 13 29 16 WSW 1014,7 10
11.08.2018 02:00:00 14,2 10,0 24 13 25 14 WSW 1014,9 10
11.08.2018 01:00:00 14,6 8,0 16 9 29 16 NNE 1014,8 10
11.08.2018 00:00:00 14,2 9,2 26 14 32 18 E 1015,0 10
10.08.2018 23:00:00 12,8 9,3 31 17 40 21 SSE 1015,1 4,4
10.08.2018 22:00:00 15,7 10,6 24 13 29 16 N 1014,6 10
10.08.2018 21:00:00 16,3 10,0 15 8 18 10 WNW 1014,3 10
10.08.2018 20:00:00 16,3 11,2 21 11 25 14 SW 1014,7 10
10.08.2018 19:00:00 16,4 10,4 24 13 29 16 SW 1015,0 10
10.08.2018 18:00:00 16,5 10,0 29 16 29 16 SW 1015,2 10
10.08.2018 17:00:00 16,5 8,9 34 18 36 19 SW 1014,7 10
10.08.2018 16:00:00 16,8 9,4 35 19 36 19 SW 1015,1 10
10.08.2018 15:00:00 16,5 9,4 39 21 40 21 SW 1014,8 10
10.08.2018 14:00:00 16,6 10,5 41 22 43 23 WSW 1014,5 10
10.08.2018 13:00:00 16,5 9,4 41 22 50 27 WSW 1014,1 10
10.08.2018 12:00:00 16,2 8,6 46 25 47 25 WSW 1013,6 10
10.08.2018 11:00:00 17,0 9,8 34 18 36 19 WSW 1013,0 10
10.08.2018 10:00:00 17,1 10,2 34 18 36 19 W 1012,5 10
10.08.2018 09:00:00 16,9 11,1 9 5 47 25 W 1011,9 10
10.08.2018 08:00:00 16,3 9,7 28 15 36 19 W 1011,5 10
10.08.2018 07:00:00 16,6 9,1 41 22 47 25 NW 1011,0 10
10.08.2018 06:00:00 16,5 8,4 46 25 47 25 NW 1010,5 10
10.08.2018 05:00:00 16,6 8,1 46 25 50 27 WNW 1009,5 10
10.08.2018 04:00:00 14,5 11,6 39 21 43 23 WNW 1009,4 10
10.08.2018 03:00:00 15,4 9,5 34 18 40 21 NNW 1009,1 10
10.08.2018 02:00:00 14,1 11,1 42 23 54 29 N 1009,0 10
10.08.2018 01:00:00 15,4 11,8 54 29 58 31 N 1008,0 10
10.08.2018 00:00:00 14,9 11,4 52 28 58 31 N 1007,9 10
09.08.2018 23:00:00 15,3 10,8 52 28 50 27 N 1008,7 10
09.08.2018 22:00:00 15,9 11,8 52 28 50 27 N 1008,8 10
09.08.2018 21:00:00 14,9 12,7 39 21 47 25 N 1008,9 10
09.08.2018 20:00:00 16,4 13,4 34 18 40 21 N 1009,5 10
09.08.2018 19:00:00 16,6 12,8 31 17 40 21 N 1010,1 10
09.08.2018 18:00:00 16,8 12,5 37 20 36 19 N 1010,6 10
09.08.2018 17:00:00 17,1 12,7 21 11 29 16 N 1011,8 10
09.08.2018 16:00:00 17,3 13,3 22 12 22 12 NE 1012,4 10
09.08.2018 15:00:00 17,1 12,8 21 11 22 12 NE 1012,7 10
09.08.2018 14:00:00 16,4 11,9 18 10 22 12 N 1012,9 10
09.08.2018 13:00:00 16,6 12,4 21 11 22 12 N 1013,2 10
09.08.2018 12:00:00 17,1 12,5 22 12 25 14 N 1013,6 10
09.08.2018 11:00:00 17,4 13,7 21 11 22 12 N 1013,3 10
09.08.2018 10:00:00 17,9 15,1 13 7 18 10 NW 1013,2 10
09.08.2018 09:00:00 18,2 14,6 8 4 7 4 W 1013,0 10
09.08.2018 08:00:00 18,3 15,4 9 5 14 8 SW 1012,8 10
09.08.2018 07:00:00 18,7 16,0 15 8 18 10 SSW 1012,5 10
09.08.2018 06:00:00 18,8 15,5 21 11 22 12 SSW 1012,6 10
09.08.2018 05:00:00 18,8 16,1 21 11 25 14 S 1012,5 10
09.08.2018 04:00:00 18,9 14,6 24 13 25 14 S 1012,4 10
09.08.2018 03:00:00 18,8 14,3 28 15 29 16 S 1012,5 10
09.08.2018 02:00:00 18,5 13,5 29 16 29 16 S 1012,6 10
09.08.2018 01:00:00 18,4 12,7 29 16 29 16 S 1012,7 10

tt = Température de l'air
td = dewpoint
ff = Vitesse du vent
fx = gusts
dd = Direction du vent
ppp = reduced air pressure
vv = visibility

stations d'obs. à proximité